TimeCDT,TemperatureF,Dew PointF,Humidity,Sea Level PressureIn,VisibilityMPH,Wind Direction,Wind SpeedMPH,Gust SpeedMPH,PrecipitationIn,Events,Conditions,WindDirDegrees,DateUTC
12:53 AM,52.0,46.0,80,30.02,10.0,South,8.1,-,N/A,,Clear,170,2013-09-14 05:53:00
1:53 AM,51.1,45.0,80,30.01,10.0,South,6.9,-,N/A,,Clear,170,2013-09-14 06:53:00
2:53 AM,50.0,45.0,83,30.00,10.0,SE,4.6,-,N/A,,Clear,140,2013-09-14 07:53:00
3:53 AM,50.0,45.0,83,29.99,10.0,SSE,4.6,-,N/A,,Clear,150,2013-09-14 08:53:00
4:53 AM,48.9,45.0,86,29.98,10.0,SE,5.8,-,N/A,,Clear,140,2013-09-14 09:53:00
5:53 AM,46.9,44.1,90,29.97,10.0,SE,6.9,-,N/A,,Clear,140,2013-09-14 10:53:00
6:53 AM,46.9,44.1,90,29.97,10.0,SSE,4.6,-,N/A,,Clear,150,2013-09-14 11:53:00
7:53 AM,48.0,45.0,89,29.97,10.0,SE,4.6,-,N/A,,Clear,140,2013-09-14 12:53:00
8:53 AM,55.9,48.9,77,29.96,10.0,South,3.5,-,N/A,,Clear,180,2013-09-14 13:53:00
9:53 AM,63.0,50.0,63,29.94,10.0,SSW,10.4,-,N/A,,Clear,200,2013-09-14 14:53:00
10:53 AM,64.9,51.1,61,29.93,10.0,South,10.4,-,N/A,,Clear,190,2013-09-14 15:53:00
11:53 AM,66.0,52.0,60,29.91,10.0,South,10.4,-,N/A,,Mostly Cloudy,190,2013-09-14 16:53:00
12:53 PM,68.0,53.1,59,29.92,10.0,SW,16.1,21.9,N/A,,Scattered Clouds,220,2013-09-14 17:53:00
1:53 PM,59.0,55.9,90,29.93,6.0,WSW,10.4,-,0.01,Rain,Light Rain,240,2013-09-14 18:53:00
2:53 PM,57.0,55.9,96,29.92,4.0,SSW,12.7,-,0.11,Rain,Rain,210,2013-09-14 19:53:00
3:19 PM,57.2,55.4,94,29.90,3.0,SSW,10.4,-,0.09,Rain,Rain,200,2013-09-14 20:19:00
3:29 PM,57.2,55.4,94,29.89,2.5,South,13.8,-,0.13,Rain,Rain,190,2013-09-14 20:29:00
3:36 PM,55.4,55.4,100,29.89,4.0,South,16.1,-,0.15,Rain,Rain,180,2013-09-14 20:36:00
3:53 PM,55.9,55.0,97,29.90,5.0,South,11.5,-,0.19,Rain,Rain,180,2013-09-14 20:53:00
4:53 PM,55.9,55.0,97,29.91,4.0,SSE,9.2,-,0.18,Rain,Heavy Rain,160,2013-09-14 21:53:00
5:06 PM,55.4,55.4,100,29.89,2.5,SSE,8.1,-,0.08,Rain,Heavy Rain,160,2013-09-14 22:06:00
5:24 PM,55.4,55.4,100,29.90,3.0,Variable,4.6,-,0.16,Rain,Rain,0,2013-09-14 22:24:00
5:38 PM,55.4,53.6,94,29.90,2.5,SE,10.4,-,0.24,Rain,Heavy Rain,140,2013-09-14 22:38:00
5:53 PM,55.0,54.0,96,29.94,3.0,SSE,9.2,-,0.30,Rain,Heavy Rain,150,2013-09-14 22:53:00
6:05 PM,55.4,53.6,94,29.92,2.5,SE,6.9,-,0.05,Rain,Heavy Rain,140,2013-09-14 23:05:00
6:16 PM,55.4,53.6,94,29.92,3.0,SE,8.1,-,0.10,Rain,Rain,140,2013-09-14 23:16:00
6:28 PM,55.4,53.6,94,29.91,2.5,SSE,10.4,-,0.16,Rain,Heavy Rain,150,2013-09-14 23:28:00
6:33 PM,55.4,53.6,94,29.90,3.0,SSE,12.7,-,0.18,Rain,Heavy Rain,150,2013-09-14 23:33:00
6:48 PM,55.4,53.6,94,29.91,5.0,SE,8.1,-,0.22,Rain,Rain,140,2013-09-14 23:48:00
6:53 PM,55.0,54.0,96,29.94,6.0,SE,11.5,-,0.23,Rain,Light Rain,140,2013-09-14 23:53:00
7:26 PM,53.6,53.6,100,29.91,5.0,SSE,8.1,-,0.07,Rain,Rain,150,2013-09-15 00:26:00
7:38 PM,53.6,53.6,100,29.92,9.0,SE,4.6,-,0.08,Rain,Light Rain,130,2013-09-15 00:38:00
7:46 PM,53.6,53.6,100,29.92,8.0,ESE,3.5,-,0.09,Rain,Light Rain,120,2013-09-15 00:46:00
7:53 PM,54.0,54.0,100,29.94,6.0,East,3.5,-,0.11,Rain,Rain,100,2013-09-15 00:53:00
8:49 PM,53.6,53.6,100,29.92,10.0,SE,5.8,-,0.07,Rain,Light Rain,130,2013-09-15 01:49:00
8:53 PM,54.0,54.0,100,29.93,10.0,ESE,4.6,-,0.07,Rain,Light Rain,120,2013-09-15 01:53:00
9:07 PM,53.6,53.6,100,29.93,10.0,ESE,3.5,-,0.00,Rain,Light Rain,120,2013-09-15 02:07:00
9:14 PM,53.6,53.6,100,29.93,10.0,Calm,Calm,-,0.00,,Overcast,0,2013-09-15 02:14:00
9:31 PM,53.6,53.6,100,29.93,10.0,East,3.5,-,0.01,,Overcast,80,2013-09-15 02:31:00
9:53 PM,54.0,54.0,100,29.94,10.0,Calm,Calm,-,0.01,,Overcast,0,2013-09-15 02:53:00
10:53 PM,55.0,54.0,96,29.95,10.0,Calm,Calm,-,N/A,,Overcast,0,2013-09-15 03:53:00
11:25 PM,55.4,53.6,94,29.95,10.0,Calm,Calm,-,N/A,,Mostly Cloudy,0,2013-09-15 04:25:00
11:48 PM,53.6,53.6,100,29.95,10.0,Calm,Calm,-,N/A,,Mostly Cloudy,0,2013-09-15 04:48:00
11:53 PM,54.0,54.0,100,29.96,10.0,Calm,Calm,-,N/A,,Mostly Cloudy,0,2013-09-15 04:53:00